Regional Weather Roundup
Issued by NWS

Home | Current Version | Previous Version | Text Only | Print | Product List | Glossary Off
Versions: 1 2 3 4 5 6 7 8 9 10 11 12 13 14 15 16 17 18 19 20 21 22 23 24 25 26 27

000
ASUS45 KBOU 270707
RWRCO

WEATHER ROUNDUP FOR COLORADO
NATIONAL WEATHER SERVICE DENVER/BOULDER CO
1200 AM MST MON FEB 27 2017

NOTE: "FAIR" INDICATES FEW OR NO CLOUDS BELOW 12000 FEET WITH NO
SIGNIFICANT WEATHER AND/OR OBSTRUCTIONS TO VISIBILITY.

COZ001>005-013-030-031-270800-
...NORTHWEST COLORADO...

CITY           SKY/WX    TMP DP  RH WIND       PRES   REMARKS
CRAIG          CLOUDY    22   7  52 VRB3      29.74F
HAYDEN         CLOUDY    19   3  49 E15       29.73F WCI   5
MEEKER         CLOUDY    25  14  63 N6        29.74F WCI  18
MOUNT WERNER   NOT AVBL
STEAMBOAT SPGS CLOUDY    10   3  72 CALM      29.75F
WALDEN         NOT AVBL
$$

COZ006>008-011-270800-
...WEST CENTRAL VALLEYS...

CITY           SKY/WX    TMP DP  RH WIND       PRES   REMARKS
GRAND JUNCTION CLOUDY    37  13  37 SE13      29.77F
MONTROSE       CLOUDY    31  11  43 E10       29.84F WCI  22
EAGLE          CLOUDY    21   8  57 E6        29.82S WCI  13
RIFLE          CLOUDY    29  14  53 VRB5      29.77F WCI  24
DELTA          CLOUDY    37  11  34 N5        29.83S
NUCLA          FAIR      30  12  47 E3        29.86S
$$

COZ017>023-064>068-270800-
...SOUTHWEST COLORADO...

CITY           SKY/WX    TMP DP  RH WIND       PRES   REMARKS
DURANGO        CLOUDY    28  14  55 E3        29.90S
CORTEZ         CLOUDY    36  16  44 S8        29.86F
PAGOSA SPRINGS CLOUDY    26  11  53 CALM      29.90S
TELLURIDE      FAIR      22   9  56 SE3       29.85S
WOLF CREEK PAS LGT SNOW   7   5  92 S29G41    29.82R WCI -16
$$

COZ009-010-012-014-032>034-037-058>063-270800-
...CENTRAL COLORADO...

CITY           SKY/WX    TMP DP  RH WIND       PRES   REMARKS
ASPEN          FAIR      12   3  67 S8        29.78S WCI   0
BUENA VISTA    CLOUDY    26   1  34 N9G16     29.78S WCI  17
COPPER MTN     FAIR       9  -4  56 MISG      29.70S
BERTHOUD PASS  FAIR       1  -9  60 NW23G35   29.62S WCI -21
COTTONWOOD PAS CLOUDY    21   3  45 W15G30    29.74S WCI   8
GUNNISON       MOCLDY     5   0  79 SE3       29.88S
KREMMLING      CLOUDY    21  12  68 CALM      29.78S
LEADVILLE      FAIR      -3 -10  72 NE7       29.73S WCI -16
MONARCH PASS     N/A      3   0  85 W36       29.83S WCI -23
SALIDA         FAIR      29   2  31 S10G25    29.87F WCI  19
SUNLIGHT       NOT AVBL
WILKERSON PASS FAIR       9   0  66 SW22G30   29.68F WCI -11
$$

COZ069>075-270800-
...SAN LUIS VALLEY/SANGRE DE CRISTO MOUNTAINS...

CITY           SKY/WX    TMP DP  RH WIND       PRES   REMARKS
ALAMOSA        FAIR      21  11  65 SW10      29.85F WCI  10
LA VETA PASS   FAIR      18   5  57 S29G46    29.74S WCI  -2
SAGUACHE       FAIR      16   3  57 NW14      29.86S WCI   1
$$

COZ035-036-038>040-270800-
...NORTHERN COLORADO FRONT RANGE...

CITY           SKY/WX    TMP DP  RH WIND       PRES   REMARKS
DENVER INTL AP FAIR      15   4  61 S8        29.74F WCI   4
DMNS CITY PARK   N/A     26   9  50 E6G12     29.74F WCI  19
AURORA         PTCLDY    20   2  45 S12       29.74F WCI   9
FRONT RANGE AP FAIR      21   7  53 S7        29.75F WCI  13
ERIE MUNI ARPT FAIR      18  12  76 CALM      29.75F
BOULDER MUN AP FAIR      27  14  59 CALM      29.73F
CENTENNIAL     FAIR      20   6  55 SE9       29.74S WCI   9
BROOMFIELD     FAIR      27   9  46 CALM      29.74F
FORT COLLINS   FAIR      19  13  77 N5        29.76F WCI  12
LONGMONT       NOT AVBL
$$

COZ041-046-047-076>085-087-088-270800-
...PIKES PEAK/PALMER DIVIDE AND SOUTHERN FOOTHILLS...

CITY           SKY/WX    TMP DP  RH WIND       PRES   REMARKS
COLO. SPRINGS  FAIR      24  -4  29 NE10      29.75F WCI  14
A. F. ACADEMY  FAIR      25  -3  29 S7        29.73F WCI  17
SCHRIEVER AFB  FAIR      20   1  42 N8        29.77F WCI  10
ELLICOTT       NOT AVBL
FALCON         FAIR      18   1  49 NE5       29.76F WCI  11
FORT CARSON    FAIR      34   0  23 SW9       29.75S WCI  27
LIMON          FAIR      22   7  52 SE9       29.79S WCI  12
MONUMENT HILL  FAIR      25   3  39 SW12      29.75F WCI  14
TRINIDAD       FAIR      22   2  42 W10       29.79S WCI  11
$$

COZ042>045-048>051-090-091-270800-
...NORTHEAST COLORADO...

CITY           SKY/WX    TMP DP  RH WIND       PRES   REMARKS
GREELEY ARPT   FAIR      18  13  80 CALM      29.77F
AKRON          FAIR      19  10  68 SE13      29.78F WCI   6
BURLINGTON     FAIR      23   9  55 S17       29.83R WCI   9
WRAY           NOT AVBL
STERLING       FAIR      27  14  59 SE10      29.80F WCI  17
HOLYOKE        FAIR      21  14  73 S7        29.85S WCI  13
FORT MORGAN    FAIR      18  13  79 NE9       29.77F WCI   7
$$

COZ086-089-092>099-270800-
...SOUTHEAST COLORADO...

CITY           SKY/WX    TMP DP  RH WIND       PRES   REMARKS
PUEBLO         FAIR      18  -3  39 CALM      29.78S
LA JUNTA       FAIR      35   8  32 S9        29.79F WCI  28
LAMAR          FAIR      22   8  55 NE7       29.81F WCI  13
SPRINGFIELD      N/A     21   9  59 S6        29.82S WCI  13
$$




USA.gov is the U.S. government's official web portal to all federal, state and local government web resources and services.